Time,TemperatureF,DewpointF,PressureIn,WindDirection,WindDirectionDegrees,WindSpeedMPH,WindSpeedGustMPH,Humidity,HourlyPrecipIn,Conditions,Clouds,dailyrainin,SoftwareType,DateUTC
2013-05-18 00:05:00,52.6,46.3,30.19,ESE,122,0.0,2.0,79,0.00,,,0.00,Wunderground v.1.15,2013-05-18 04:05:00,
2013-05-18 00:10:00,52.5,46.2,30.19,ESE,122,0.0,2.0,79,0.00,,,0.00,Wunderground v.1.15,2013-05-18 04:10:00,
2013-05-18 00:20:00,52.6,45.9,30.19,ESE,122,0.0,2.0,78,0.00,,,0.00,Wunderground v.1.15,2013-05-18 04:20:00,
2013-05-18 00:25:00,52.7,46.0,30.19,ESE,122,0.0,2.0,78,0.00,,,0.00,Wunderground v.1.15,2013-05-18 04:25:00,
2013-05-18 00:30:00,52.7,46.0,30.19,ESE,122,0.0,2.0,78,0.00,,,0.00,Wunderground v.1.15,2013-05-18 04:30:00,
2013-05-18 00:40:00,52.8,45.4,30.19,ESE,122,0.0,2.0,76,0.00,,,0.00,Wunderground v.1.15,2013-05-18 04:40:00,
2013-05-18 00:45:00,52.8,45.4,30.19,ESE,122,0.0,2.0,76,0.00,,,0.00,Wunderground v.1.15,2013-05-18 04:45:00,
2013-05-18 00:50:00,52.8,45.4,30.19,ESE,122,0.0,2.0,76,0.00,,,0.00,Wunderground v.1.15,2013-05-18 04:50:00,
2013-05-18 00:55:00,52.8,44.7,30.19,ESE,122,0.0,2.0,74,0.00,,,0.00,Wunderground v.1.15,2013-05-18 04:55:00,
2013-05-18 01:00:00,52.9,44.5,30.19,ESE,122,0.0,2.0,73,0.00,,,0.00,Wunderground v.1.15,2013-05-18 05:00:00,
2013-05-18 01:10:00,53.0,44.9,30.19,ESE,122,0.0,2.0,74,0.00,,,0.00,Wunderground v.1.15,2013-05-18 05:10:00,
2013-05-18 01:15:00,53.0,44.2,30.18,ESE,122,0.0,2.0,72,0.00,,,0.00,Wunderground v.1.15,2013-05-18 05:15:00,
2013-05-18 01:20:00,53.0,44.2,30.18,ESE,122,0.0,2.0,72,0.00,,,0.00,Wunderground v.1.15,2013-05-18 05:20:00,
2013-05-18 01:25:00,53.0,44.2,30.18,ESE,122,0.0,2.0,72,0.00,,,0.00,Wunderground v.1.15,2013-05-18 05:25:00,
2013-05-18 01:30:00,53.0,43.5,30.18,ESE,122,0.0,2.0,70,0.00,,,0.00,Wunderground v.1.15,2013-05-18 05:30:00,
2013-05-18 01:40:00,53.0,43.5,30.18,ESE,122,0.0,2.0,70,0.00,,,0.00,Wunderground v.1.15,2013-05-18 05:40:00,
2013-05-18 01:45:00,53.0,43.1,30.17,ESE,122,0.0,2.0,69,0.00,,,0.00,Wunderground v.1.15,2013-05-18 05:45:00,
2013-05-18 01:50:00,53.0,43.8,30.17,ESE,122,0.0,2.0,71,0.00,,,0.00,Wunderground v.1.15,2013-05-18 05:50:00,
2013-05-18 01:55:00,52.9,43.7,30.17,ESE,122,0.0,2.0,71,0.00,,,0.00,Wunderground v.1.15,2013-05-18 05:55:00,
2013-05-18 02:00:00,52.8,43.7,30.17,ESE,122,0.0,2.0,71,0.00,,,0.00,Wunderground v.1.15,2013-05-18 06:00:00,
2013-05-18 02:05:00,52.7,44.3,30.17,ESE,122,0.0,2.0,73,0.00,,,0.00,Wunderground v.1.15,2013-05-18 06:05:00,
2013-05-18 02:15:00,52.4,44.0,30.17,ESE,122,0.0,2.0,73,0.00,,,0.00,Wunderground v.1.15,2013-05-18 06:15:00,
2013-05-18 02:25:00,52.4,43.6,30.17,ESE,122,0.0,2.0,72,0.00,,,0.00,Wunderground v.1.15,2013-05-18 06:25:00,
2013-05-18 02:30:00,52.5,44.4,30.17,ESE,122,0.0,2.0,74,0.00,,,0.00,Wunderground v.1.15,2013-05-18 06:30:00,
2013-05-18 02:35:00,52.4,44.7,30.17,ESE,122,0.0,2.0,75,0.00,,,0.00,Wunderground v.1.15,2013-05-18 06:35:00,
2013-05-18 02:40:00,52.3,44.6,30.17,ESE,122,0.0,2.0,75,0.00,,,0.00,Wunderground v.1.15,2013-05-18 06:40:00,
2013-05-18 02:50:00,52.2,44.2,30.17,ESE,122,0.0,2.0,74,0.00,,,0.00,Wunderground v.1.15,2013-05-18 06:50:00,
2013-05-18 02:55:00,52.3,43.5,30.17,ESE,122,0.0,2.0,72,0.00,,,0.00,Wunderground v.1.15,2013-05-18 06:55:00,
2013-05-18 03:05:00,52.4,44.7,30.17,ESE,122,0.0,2.0,75,0.00,,,0.00,Wunderground v.1.15,2013-05-18 07:05:00,
2013-05-18 03:10:00,52.3,44.6,30.17,ESE,122,0.0,2.0,75,0.00,,,0.00,Wunderground v.1.15,2013-05-18 07:10:00,
2013-05-18 03:20:00,52.2,44.5,30.17,ESE,122,0.0,2.0,75,0.00,,,0.00,Wunderground v.1.15,2013-05-18 07:20:00,
2013-05-18 03:25:00,52.2,44.5,30.17,ESE,122,0.0,2.0,75,0.00,,,0.00,Wunderground v.1.15,2013-05-18 07:25:00,
2013-05-18 03:35:00,52.1,44.1,30.17,ESE,122,0.0,2.0,74,0.00,,,0.00,Wunderground v.1.15,2013-05-18 07:35:00,
2013-05-18 03:40:00,52.1,44.4,30.17,ESE,122,0.0,2.0,75,0.00,,,0.00,Wunderground v.1.15,2013-05-18 07:40:00,
2013-05-18 03:50:00,52.0,44.7,30.17,ESE,122,0.0,2.0,76,0.00,,,0.00,Wunderground v.1.15,2013-05-18 07:50:00,
2013-05-18 03:55:00,51.9,44.2,30.17,ESE,122,0.0,2.0,75,0.00,,,0.00,Wunderground v.1.15,2013-05-18 07:55:00,
2013-05-18 04:00:00,51.9,44.2,30.17,ESE,122,0.0,2.0,75,0.00,,,0.00,Wunderground v.1.15,2013-05-18 08:00:00,
2013-05-18 04:10:00,51.8,44.5,30.17,ESE,122,0.0,2.0,76,0.00,,,0.00,Wunderground v.1.15,2013-05-18 08:10:00,
2013-05-18 04:15:00,51.7,44.4,30.17,ESE,122,0.0,2.0,76,0.00,,,0.00,Wunderground v.1.15,2013-05-18 08:15:00,
2013-05-18 04:20:00,51.6,43.9,30.17,ESE,122,0.0,2.0,75,0.00,,,0.00,Wunderground v.1.15,2013-05-18 08:20:00,
2013-05-18 04:30:00,51.5,44.2,30.18,ESE,122,0.0,2.0,76,0.00,,,0.00,Wunderground v.1.15,2013-05-18 08:30:00,
2013-05-18 04:35:00,51.5,43.8,30.18,ESE,122,0.0,2.0,75,0.00,,,0.00,Wunderground v.1.15,2013-05-18 08:35:00,
2013-05-18 04:40:00,51.5,44.5,30.18,ESE,122,0.0,2.0,77,0.00,,,0.00,Wunderground v.1.15,2013-05-18 08:40:00,
2013-05-18 04:45:00,51.4,44.4,30.17,ESE,122,0.0,2.0,77,0.00,,,0.00,Wunderground v.1.15,2013-05-18 08:45:00,
2013-05-18 04:55:00,51.5,44.5,30.17,ESE,122,0.0,2.0,77,0.00,,,0.00,Wunderground v.1.15,2013-05-18 08:55:00,
2013-05-18 05:05:00,51.5,45.2,30.17,ESE,122,0.0,2.0,79,0.00,,,0.00,Wunderground v.1.15,2013-05-18 09:05:00,
2013-05-18 05:10:00,51.4,45.1,30.17,ESE,122,0.0,2.0,79,0.00,,,0.00,Wunderground v.1.15,2013-05-18 09:10:00,
2013-05-18 05:20:00,51.5,45.2,30.16,ESE,122,0.0,2.0,79,0.00,,,0.00,Wunderground v.1.15,2013-05-18 09:20:00,
2013-05-18 05:25:00,51.8,45.5,30.17,ESE,122,0.0,2.0,79,0.00,,,0.00,Wunderground v.1.15,2013-05-18 09:25:00,
2013-05-18 05:30:00,51.8,45.5,30.17,ESE,122,0.0,2.0,79,0.00,,,0.00,Wunderground v.1.15,2013-05-18 09:30:00,
2013-05-18 05:35:00,51.8,45.8,30.17,ESE,122,0.0,2.0,80,0.00,,,0.00,Wunderground v.1.15,2013-05-18 09:35:00,
2013-05-18 05:40:00,51.8,45.8,30.17,ESE,122,0.0,2.0,80,0.00,,,0.00,Wunderground v.1.15,2013-05-18 09:40:00,
2013-05-18 05:45:00,51.9,45.6,30.17,ESE,122,0.0,2.0,79,0.00,,,0.00,Wunderground v.1.15,2013-05-18 09:45:00,
2013-05-18 05:55:00,52.0,45.7,30.17,ESE,122,0.0,2.0,79,0.00,,,0.00,Wunderground v.1.15,2013-05-18 09:55:00,
2013-05-18 06:00:00,52.0,45.7,30.17,ESE,122,0.0,2.0,79,0.00,,,0.00,Wunderground v.1.15,2013-05-18 10:00:00,
2013-05-18 06:05:00,52.0,45.7,30.17,ESE,122,0.0,2.0,79,0.00,,,0.00,Wunderground v.1.15,2013-05-18 10:05:00,
2013-05-18 06:10:00,52.0,45.7,30.17,ESE,122,0.0,2.0,79,0.00,,,0.00,Wunderground v.1.15,2013-05-18 10:10:00,
2013-05-18 06:15:00,52.1,45.8,30.16,ESE,122,0.0,2.0,79,0.00,,,0.00,Wunderground v.1.15,2013-05-18 10:15:00,
2013-05-18 06:25:00,52.0,45.7,30.17,ESE,122,0.0,2.0,79,0.00,,,0.00,Wunderground v.1.15,2013-05-18 10:25:00,
2013-05-18 06:30:00,52.1,45.8,30.17,ESE,122,0.0,2.0,79,0.00,,,0.00,Wunderground v.1.15,2013-05-18 10:30:00,
2013-05-18 06:35:00,52.1,45.8,30.17,ESE,122,0.0,2.0,79,0.00,,,0.00,Wunderground v.1.15,2013-05-18 10:35:00,
2013-05-18 06:40:00,52.2,45.5,30.17,ESE,122,0.0,2.0,78,0.00,,,0.00,Wunderground v.1.15,2013-05-18 10:40:00,
2013-05-18 06:45:00,52.2,45.5,30.17,ESE,122,0.0,2.0,78,0.00,,,0.00,Wunderground v.1.15,2013-05-18 10:45:00,
2013-05-18 06:50:00,52.2,45.9,30.18,ESE,122,0.0,2.0,79,0.00,,,0.00,Wunderground v.1.15,2013-05-18 10:50:00,
2013-05-18 07:00:00,52.2,45.5,30.18,ESE,122,0.0,2.0,78,0.00,,,0.00,Wunderground v.1.15,2013-05-18 11:00:00,
2013-05-18 07:05:00,52.2,46.2,30.18,ESE,122,0.0,2.0,80,0.00,,,0.00,Wunderground v.1.15,2013-05-18 11:05:00,
2013-05-18 07:10:00,52.1,46.1,30.18,ESE,122,0.0,2.0,80,0.00,,,0.00,Wunderground v.1.15,2013-05-18 11:10:00,
2013-05-18 07:15:00,52.1,46.4,30.18,ESE,122,0.0,2.0,81,0.00,,,0.00,Wunderground v.1.15,2013-05-18 11:15:00,
2013-05-18 07:20:00,51.9,46.6,30.18,ESE,122,0.0,2.0,82,0.00,,,0.00,Wunderground v.1.15,2013-05-18 11:20:00,
2013-05-18 07:30:00,51.5,46.8,30.19,ESE,122,0.0,2.0,84,0.00,,,0.00,Wunderground v.1.15,2013-05-18 11:30:00,
2013-05-18 07:40:00,51.3,46.9,30.19,ESE,122,0.0,2.0,85,0.00,,,0.00,Wunderground v.1.15,2013-05-18 11:40:00,
2013-05-18 07:45:00,51.1,47.4,30.19,ESE,122,0.0,2.0,87,0.00,,,0.00,Wunderground v.1.15,2013-05-18 11:45:00,
2013-05-18 07:50:00,50.9,47.5,30.19,ESE,122,0.0,2.0,88,0.00,,,0.00,Wunderground v.1.15,2013-05-18 11:50:00,
2013-05-18 07:55:00,50.8,47.7,30.18,ESE,122,0.0,2.0,89,0.00,,,0.00,Wunderground v.1.15,2013-05-18 11:55:00,
2013-05-18 08:05:00,50.7,47.9,30.19,ESE,122,0.0,2.0,90,0.00,,,0.00,Wunderground v.1.15,2013-05-18 12:05:00,
2013-05-18 08:10:00,50.9,48.1,30.20,ESE,122,0.0,2.0,90,0.00,,,0.00,Wunderground v.1.15,2013-05-18 12:10:00,
2013-05-18 08:15:00,50.9,48.1,30.20,ESE,122,0.0,2.0,90,0.00,,,0.00,Wunderground v.1.15,2013-05-18 12:15:00,
2013-05-18 08:20:00,51.1,48.6,30.20,ESE,122,0.0,2.0,91,0.00,,,0.00,Wunderground v.1.15,2013-05-18 12:20:00,
2013-05-18 08:25:00,51.2,48.7,30.19,ESE,122,0.0,2.0,91,0.00,,,0.00,Wunderground v.1.15,2013-05-18 12:25:00,
2013-05-18 08:35:00,51.8,49.3,30.20,ESE,122,0.0,2.0,91,0.00,,,0.00,Wunderground v.1.15,2013-05-18 12:35:00,
2013-05-18 08:45:00,52.1,49.6,30.19,ESE,122,0.0,2.0,91,0.00,,,0.00,Wunderground v.1.15,2013-05-18 12:45:00,
2013-05-18 08:50:00,52.2,49.4,30.20,ESE,122,0.0,2.0,90,0.00,,,0.00,Wunderground v.1.15,2013-05-18 12:50:00,
2013-05-18 08:55:00,52.3,49.5,30.20,ESE,122,0.0,2.0,90,0.00,,,0.00,Wunderground v.1.15,2013-05-18 12:55:00,
2013-05-18 09:00:00,52.4,49.6,30.20,ESE,122,0.0,2.0,90,0.00,,,0.00,Wunderground v.1.15,2013-05-18 13:00:00,
2013-05-18 09:10:00,52.7,49.5,30.20,ESE,122,0.0,2.0,89,0.00,,,0.00,Wunderground v.1.15,2013-05-18 13:10:00,
2013-05-18 09:15:00,52.8,49.6,30.20,ESE,122,0.0,2.0,89,0.00,,,0.00,Wunderground v.1.15,2013-05-18 13:15:00,
2013-05-18 09:25:00,52.9,49.7,30.20,ESE,122,0.0,2.0,89,0.00,,,0.00,Wunderground v.1.15,2013-05-18 13:25:00,
2013-05-18 09:30:00,53.1,50.2,30.20,ESE,122,0.0,2.0,90,0.00,,,0.00,Wunderground v.1.15,2013-05-18 13:30:00,
2013-05-18 09:40:00,53.1,50.2,30.20,ESE,122,0.0,2.0,90,0.00,,,0.00,Wunderground v.1.15,2013-05-18 13:40:00,
2013-05-18 09:45:00,53.1,49.9,30.20,ESE,122,0.0,2.0,89,0.00,,,0.00,Wunderground v.1.15,2013-05-18 13:45:00,
2013-05-18 09:55:00,52.9,49.7,30.19,ESE,122,0.0,2.0,89,0.00,,,0.00,Wunderground v.1.15,2013-05-18 13:55:00,
2013-05-18 10:00:00,52.9,50.0,30.19,ESE,122,0.0,2.0,90,0.00,,,0.00,Wunderground v.1.15,2013-05-18 14:00:00,
2013-05-18 10:05:00,52.8,50.2,30.19,ESE,122,0.0,2.0,91,0.00,,,0.00,Wunderground v.1.15,2013-05-18 14:05:00,
2013-05-18 10:15:00,52.6,50.3,30.18,East,90,0.0,2.0,92,0.00,,,0.00,Wunderground v.1.15,2013-05-18 14:15:00,
2013-05-18 10:20:00,52.7,50.7,30.19,East,90,0.0,2.0,93,0.00,,,0.00,Wunderground v.1.15,2013-05-18 14:20:00,
2013-05-18 10:25:00,52.8,50.8,30.19,East,90,0.0,2.0,93,0.00,,,0.00,Wunderground v.1.15,2013-05-18 14:25:00,
2013-05-18 10:35:00,53.2,51.2,30.19,East,95,0.0,2.0,93,0.00,,,0.00,Wunderground v.1.15,2013-05-18 14:35:00,
2013-05-18 10:45:00,53.6,51.3,30.19,East,95,0.0,2.0,92,0.00,,,0.00,Wunderground v.1.15,2013-05-18 14:45:00,
2013-05-18 10:50:00,53.4,49.9,30.19,East,95,0.0,2.0,88,0.00,,,0.00,Wunderground v.1.15,2013-05-18 14:50:00,
2013-05-18 10:55:00,53.1,49.6,30.19,East,95,0.0,2.0,88,0.00,,,0.00,Wunderground v.1.15,2013-05-18 14:55:00,
2013-05-18 11:00:00,53.4,50.2,30.19,East,95,0.0,2.0,89,0.00,,,0.00,Wunderground v.1.15,2013-05-18 15:00:00,
2013-05-18 11:05:00,53.9,51.0,30.19,East,95,0.0,2.0,90,0.00,,,0.00,Wunderground v.1.15,2013-05-18 15:05:00,
2013-05-18 11:10:00,54.4,51.5,30.19,East,95,0.0,2.0,90,0.00,,,0.00,Wunderground v.1.15,2013-05-18 15:10:00,
2013-05-18 11:20:00,55.0,51.2,30.18,East,95,0.0,2.0,87,0.00,,,0.00,Wunderground v.1.15,2013-05-18 15:20:00,
2013-05-18 11:25:00,55.5,51.7,30.17,East,95,0.0,2.0,87,0.00,,,0.00,Wunderground v.1.15,2013-05-18 15:25:00,
2013-05-18 11:30:00,55.8,52.0,30.17,East,89,0.0,2.0,87,0.00,,,0.00,Wunderground v.1.15,2013-05-18 15:30:00,
2013-05-18 11:35:00,56.2,51.7,30.17,East,88,0.0,2.0,85,0.00,,,0.00,Wunderground v.1.15,2013-05-18 15:35:00,
2013-05-18 11:40:00,56.5,51.7,30.17,East,81,0.0,2.0,84,0.00,,,0.00,Wunderground v.1.15,2013-05-18 15:40:00,
2013-05-18 11:50:00,56.9,51.1,30.17,ENE,73,1.0,2.0,81,0.00,,,0.00,Wunderground v.1.15,2013-05-18 15:50:00,
2013-05-18 11:55:00,57.1,50.6,30.17,ENE,72,1.0,2.0,79,0.00,,,0.00,Wunderground v.1.15,2013-05-18 15:55:00,
2013-05-18 12:00:00,57.3,51.2,30.17,East,88,1.0,1.0,80,0.00,,,0.00,Wunderground v.1.15,2013-05-18 16:00:00,
2013-05-18 12:10:00,58.0,50.8,30.17,East,82,0.0,2.0,77,0.00,,,0.00,Wunderground v.1.15,2013-05-18 16:10:00,
2013-05-18 12:15:00,58.5,50.6,30.16,East,79,0.0,2.0,75,0.00,,,0.00,Wunderground v.1.15,2013-05-18 16:15:00,
2013-05-18 12:20:00,58.9,50.3,30.16,ENE,63,1.0,2.0,73,0.00,,,0.00,Wunderground v.1.15,2013-05-18 16:20:00,
2013-05-18 12:25:00,59.0,50.4,30.16,ENE,65,1.0,2.0,73,0.00,,,0.00,Wunderground v.1.15,2013-05-18 16:25:00,
2013-05-18 12:30:00,59.4,49.6,30.16,East,90,1.0,1.0,70,0.00,,,0.00,Wunderground v.1.15,2013-05-18 16:30:00,
2013-05-18 12:40:00,60.1,49.1,30.15,East,88,1.0,2.0,67,0.00,,,0.00,Wunderground v.1.15,2013-05-18 16:40:00,
2013-05-18 12:45:00,60.5,48.7,30.15,East,84,0.0,2.0,65,0.00,,,0.00,Wunderground v.1.15,2013-05-18 16:45:00,
2013-05-18 12:50:00,60.6,48.8,30.15,East,79,0.0,2.0,65,0.00,,,0.00,Wunderground v.1.15,2013-05-18 16:50:00,
2013-05-18 12:55:00,60.9,48.2,30.15,ENE,69,0.0,2.0,63,0.00,,,0.00,Wunderground v.1.15,2013-05-18 16:55:00,
2013-05-18 13:00:00,61.3,47.7,30.15,ENE,74,1.0,1.0,61,0.00,,,0.00,Wunderground v.1.15,2013-05-18 17:00:00,
2013-05-18 13:05:00,61.9,47.9,30.15,East,86,1.0,2.0,60,0.00,,,0.00,Wunderground v.1.15,2013-05-18 17:05:00,
2013-05-18 13:15:00,62.7,48.2,30.14,ENE,74,1.0,2.0,59,0.00,,,0.00,Wunderground v.1.15,2013-05-18 17:15:00,
2013-05-18 13:20:00,62.8,47.8,30.14,East,80,1.0,1.0,58,0.00,,,0.00,Wunderground v.1.15,2013-05-18 17:20:00,
2013-05-18 13:25:00,62.8,47.3,30.14,East,82,1.0,2.0,57,0.00,,,0.00,Wunderground v.1.15,2013-05-18 17:25:00,
2013-05-18 13:30:00,63.0,47.5,30.14,ENE,71,0.0,2.0,57,0.00,,,0.00,Wunderground v.1.15,2013-05-18 17:30:00,
2013-05-18 13:35:00,63.0,48.0,30.14,ENE,71,0.0,2.0,58,0.00,,,0.00,Wunderground v.1.15,2013-05-18 17:35:00,
2013-05-18 13:45:00,62.9,47.9,30.14,ENE,74,0.0,2.0,58,0.00,,,0.00,Wunderground v.1.15,2013-05-18 17:45:00,
2013-05-18 13:50:00,63.1,47.6,30.14,ENE,74,0.0,2.0,57,0.00,,,0.00,Wunderground v.1.15,2013-05-18 17:50:00,
2013-05-18 13:55:00,63.2,47.2,30.13,East,82,0.0,2.0,56,0.00,,,0.00,Wunderground v.1.15,2013-05-18 17:55:00,
2013-05-18 14:00:00,63.6,47.6,30.13,East,85,1.0,1.0,56,0.00,,,0.00,Wunderground v.1.15,2013-05-18 18:00:00,
2013-05-18 14:05:00,64.2,47.2,30.13,East,86,0.0,2.0,54,0.00,,,0.00,Wunderground v.1.15,2013-05-18 18:05:00,
2013-05-18 14:10:00,64.7,47.2,30.13,ENE,78,1.0,1.0,53,0.00,,,0.00,Wunderground v.1.15,2013-05-18 18:10:00,
2013-05-18 14:20:00,65.8,46.6,30.13,ESE,103,1.0,2.0,50,0.00,,,0.00,Wunderground v.1.15,2013-05-18 18:20:00,
2013-05-18 14:25:00,65.9,47.3,30.13,NNE,24,1.0,2.0,51,0.00,,,0.00,Wunderground v.1.15,2013-05-18 18:25:00,
2013-05-18 14:30:00,65.9,47.3,30.12,East,101,1.0,1.0,51,0.00,,,0.00,Wunderground v.1.15,2013-05-18 18:30:00,
2013-05-18 14:35:00,66.4,47.2,30.12,ESE,123,1.0,2.0,50,0.00,,,0.00,Wunderground v.1.15,2013-05-18 18:35:00,
2013-05-18 14:40:00,66.7,46.4,30.12,ESE,113,1.0,1.0,48,0.00,,,0.00,Wunderground v.1.15,2013-05-18 18:40:00,
2013-05-18 14:50:00,67.1,46.7,30.11,ESE,109,1.0,3.0,48,0.00,,,0.00,Wunderground v.1.15,2013-05-18 18:50:00,
2013-05-18 14:55:00,67.2,46.8,30.11,East,98,1.0,3.0,48,0.00,,,0.00,Wunderground v.1.15,2013-05-18 18:55:00,
2013-05-18 15:00:00,67.2,47.4,30.11,East,87,2.0,2.0,49,0.00,,,0.00,Wunderground v.1.15,2013-05-18 19:00:00,
2013-05-18 15:05:00,67.4,47.6,30.10,East,80,2.0,2.0,49,0.00,,,0.00,Wunderground v.1.15,2013-05-18 19:05:00,
2013-05-18 15:10:00,67.5,47.7,30.10,ENE,74,1.0,2.0,49,0.00,,,0.00,Wunderground v.1.15,2013-05-18 19:10:00,
2013-05-18 15:15:00,67.3,47.5,30.10,ESE,103,2.0,3.0,49,0.00,,,0.00,Wunderground v.1.15,2013-05-18 19:15:00,
2013-05-18 15:25:00,67.4,47.6,30.10,East,98,2.0,2.0,49,0.00,,,0.00,Wunderground v.1.15,2013-05-18 19:25:00,
2013-05-18 15:30:00,67.4,47.6,30.10,ENE,67,2.0,2.0,49,0.00,,,0.00,Wunderground v.1.15,2013-05-18 19:30:00,
2013-05-18 15:35:00,67.7,47.8,30.09,East,98,1.0,2.0,49,0.00,,,0.00,Wunderground v.1.15,2013-05-18 19:35:00,
2013-05-18 15:40:00,68.2,48.3,30.09,East,86,1.0,1.0,49,0.00,,,0.00,Wunderground v.1.15,2013-05-18 19:40:00,
2013-05-18 15:45:00,68.6,49.2,30.09,ENE,77,1.0,2.0,50,0.00,,,0.00,Wunderground v.1.15,2013-05-18 19:45:00,
2013-05-18 15:55:00,69.1,49.1,30.08,East,83,1.0,2.0,49,0.00,,,0.00,Wunderground v.1.15,2013-05-18 19:55:00,
2013-05-18 16:00:00,69.3,48.8,30.08,ENE,67,1.0,2.0,48,0.00,,,0.00,Wunderground v.1.15,2013-05-18 20:00:00,
2013-05-18 16:05:00,69.4,48.3,30.08,ENE,78,1.0,2.0,47,0.00,,,0.00,Wunderground v.1.15,2013-05-18 20:05:00,
2013-05-18 16:10:00,69.5,48.9,30.08,ENE,68,1.0,2.0,48,0.00,,,0.00,Wunderground v.1.15,2013-05-18 20:10:00,
2013-05-18 16:20:00,70.0,48.8,30.08,East,98,2.0,2.0,47,0.00,,,0.00,Wunderground v.1.15,2013-05-18 20:20:00,
2013-05-18 16:30:00,70.5,49.9,30.07,ENE,70,1.0,4.0,48,0.00,,,0.00,Wunderground v.1.15,2013-05-18 20:30:00,
2013-05-18 16:35:00,70.6,48.8,30.06,ENE,72,2.0,4.0,46,0.00,,,0.00,Wunderground v.1.15,2013-05-18 20:35:00,
2013-05-18 16:40:00,70.4,49.2,30.06,ENE,72,1.0,2.0,47,0.00,,,0.00,Wunderground v.1.15,2013-05-18 20:40:00,
2013-05-18 16:45:00,70.5,49.9,30.06,ENE,65,1.0,2.0,48,0.00,,,0.00,Wunderground v.1.15,2013-05-18 20:45:00,
2013-05-18 16:50:00,70.7,50.0,30.06,ENE,60,1.0,1.0,48,0.00,,,0.00,Wunderground v.1.15,2013-05-18 20:50:00,
2013-05-18 17:00:00,71.2,49.4,30.06,ENE,65,1.0,2.0,46,0.00,,,0.00,Wunderground v.1.15,2013-05-18 21:00:00,
2013-05-18 17:05:00,71.6,49.7,30.06,ENE,70,2.0,2.0,46,0.00,,,0.00,Wunderground v.1.15,2013-05-18 21:05:00,
2013-05-18 17:10:00,72.1,49.6,30.06,ENE,78,1.0,2.0,45,0.00,,,0.00,Wunderground v.1.15,2013-05-18 21:10:00,
2013-05-18 17:15:00,72.8,49.6,30.05,ENE,67,1.0,3.0,44,0.00,,,0.00,Wunderground v.1.15,2013-05-18 21:15:00,
2013-05-18 17:20:00,73.0,50.4,30.05,ENE,69,1.0,2.0,45,0.00,,,0.00,Wunderground v.1.15,2013-05-18 21:20:00,
2013-05-18 17:25:00,73.2,50.0,30.05,East,92,1.0,2.0,44,0.00,,,0.00,Wunderground v.1.15,2013-05-18 21:25:00,
2013-05-18 17:35:00,73.5,49.6,30.05,ESE,113,2.0,2.0,43,0.00,,,0.00,Wunderground v.1.15,2013-05-18 21:35:00,
2013-05-18 17:40:00,73.7,50.4,30.04,ESE,115,1.0,1.0,44,0.00,,,0.00,Wunderground v.1.15,2013-05-18 21:40:00,
2013-05-18 17:45:00,73.8,49.9,30.05,ESE,105,1.0,2.0,43,0.00,,,0.00,Wunderground v.1.15,2013-05-18 21:45:00,
2013-05-18 17:50:00,73.1,49.9,30.05,ESE,118,1.0,1.0,44,0.00,,,0.00,Wunderground v.1.15,2013-05-18 21:50:00,
2013-05-18 17:55:00,73.2,50.0,30.04,ESE,109,1.0,2.0,44,0.00,,,0.00,Wunderground v.1.15,2013-05-18 21:55:00,
2013-05-18 18:05:00,73.3,50.1,30.04,East,100,1.0,2.0,44,0.00,,,0.00,Wunderground v.1.15,2013-05-18 22:05:00,
2013-05-18 18:10:00,73.1,49.3,30.04,East,96,1.0,2.0,43,0.00,,,0.00,Wunderground v.1.15,2013-05-18 22:10:00,
2013-05-18 18:15:00,72.8,50.2,30.04,East,90,1.0,2.0,45,0.00,,,0.00,Wunderground v.1.15,2013-05-18 22:15:00,
2013-05-18 18:20:00,72.4,47.4,30.03,ENE,77,1.0,1.0,41,0.00,,,0.00,Wunderground v.1.15,2013-05-18 22:20:00,
2013-05-18 18:25:00,71.9,46.9,30.04,East,91,1.0,3.0,41,0.00,,,0.00,Wunderground v.1.15,2013-05-18 22:25:00,
2013-05-18 18:30:00,71.1,46.8,30.03,East,93,1.0,2.0,42,0.00,,,0.00,Wunderground v.1.15,2013-05-18 22:30:00,
2013-05-18 18:40:00,70.3,46.7,30.03,ESE,109,1.0,2.0,43,0.00,,,0.00,Wunderground v.1.15,2013-05-18 22:40:00,
2013-05-18 18:50:00,70.6,47.0,30.03,East,90,1.0,1.0,43,0.00,,,0.00,Wunderground v.1.15,2013-05-18 22:50:00,
2013-05-18 18:55:00,70.8,47.8,30.03,East,88,1.0,2.0,44,0.00,,,0.00,Wunderground v.1.15,2013-05-18 22:55:00,
2013-05-18 19:00:00,70.9,47.9,30.03,ENE,76,1.0,1.0,44,0.00,,,0.00,Wunderground v.1.15,2013-05-18 23:00:00,
2013-05-18 19:10:00,70.7,47.7,30.03,East,80,1.0,1.0,44,0.00,,,0.00,Wunderground v.1.15,2013-05-18 23:10:00,
2013-05-18 19:15:00,70.6,47.6,30.03,ENE,71,1.0,2.0,44,0.00,,,0.00,Wunderground v.1.15,2013-05-18 23:15:00,
2013-05-18 19:20:00,70.4,47.4,30.03,East,82,1.0,2.0,44,0.00,,,0.00,Wunderground v.1.15,2013-05-18 23:20:00,
2013-05-18 19:25:00,70.2,47.9,30.03,East,80,1.0,2.0,45,0.00,,,0.00,Wunderground v.1.15,2013-05-18 23:25:00,
2013-05-18 19:30:00,70.0,47.7,30.03,ENE,60,1.0,2.0,45,0.00,,,0.00,Wunderground v.1.15,2013-05-18 23:30:00,
2013-05-18 19:35:00,69.9,48.2,30.03,East,90,1.0,2.0,46,0.00,,,0.00,Wunderground v.1.15,2013-05-18 23:35:00,
2013-05-18 19:45:00,69.3,48.2,30.03,ENE,66,1.0,2.0,47,0.00,,,0.00,Wunderground v.1.15,2013-05-18 23:45:00,
2013-05-18 19:50:00,68.9,48.9,30.02,ENE,74,1.0,2.0,49,0.00,,,0.00,Wunderground v.1.15,2013-05-18 23:50:00,
2013-05-18 19:55:00,68.6,48.7,30.03,ENE,74,1.0,2.0,49,0.00,,,0.00,Wunderground v.1.15,2013-05-18 23:55:00,
2013-05-18 20:05:00,68.4,48.5,30.03,ENE,74,1.0,2.0,49,0.00,,,0.00,Wunderground v.1.15,2013-05-19 00:05:00,
2013-05-18 20:15:00,68.3,48.4,30.02,ENE,78,1.0,2.0,49,0.00,,,0.00,Wunderground v.1.15,2013-05-19 00:15:00,
2013-05-18 20:20:00,68.0,48.7,30.02,ENE,69,1.0,1.0,50,0.00,,,0.00,Wunderground v.1.15,2013-05-19 00:20:00,
2013-05-18 20:25:00,67.7,48.9,30.02,ENE,64,1.0,2.0,51,0.00,,,0.00,Wunderground v.1.15,2013-05-19 00:25:00,
2013-05-18 20:30:00,67.3,48.5,30.02,ENE,63,1.0,1.0,51,0.00,,,0.00,Wunderground v.1.15,2013-05-19 00:30:00,
2013-05-18 20:40:00,66.7,48.5,30.02,ENE,74,1.0,2.0,52,0.00,,,0.00,Wunderground v.1.15,2013-05-19 00:40:00,
2013-05-18 20:50:00,66.0,48.4,30.02,ENE,69,1.0,1.0,53,0.00,,,0.00,Wunderground v.1.15,2013-05-19 00:50:00,
2013-05-18 20:55:00,65.6,48.5,30.02,ENE,69,1.0,2.0,54,0.00,,,0.00,Wunderground v.1.15,2013-05-19 00:55:00,
2013-05-18 21:00:00,65.3,48.2,30.02,ENE,69,0.0,2.0,54,0.00,,,0.00,Wunderground v.1.15,2013-05-19 01:00:00,
2013-05-18 21:05:00,64.8,48.7,30.02,ENE,68,0.0,2.0,56,0.00,,,0.00,Wunderground v.1.15,2013-05-19 01:05:00,
2013-05-18 21:15:00,64.2,48.2,30.02,ENE,68,0.0,2.0,56,0.00,,,0.00,Wunderground v.1.15,2013-05-19 01:15:00,
2013-05-18 21:20:00,64.0,48.5,30.02,ENE,69,0.0,2.0,57,0.00,,,0.00,Wunderground v.1.15,2013-05-19 01:20:00,
2013-05-18 21:25:00,63.8,48.3,30.02,ENE,68,0.0,2.0,57,0.00,,,0.00,Wunderground v.1.15,2013-05-19 01:25:00,
2013-05-18 21:30:00,63.4,48.4,30.02,ENE,68,0.0,2.0,58,0.00,,,0.00,Wunderground v.1.15,2013-05-19 01:30:00,
2013-05-18 21:35:00,63.0,48.4,30.02,ENE,68,0.0,2.0,59,0.00,,,0.00,Wunderground v.1.15,2013-05-19 01:35:00,
2013-05-18 21:40:00,62.9,47.9,30.02,ENE,67,0.0,2.0,58,0.00,,,0.00,Wunderground v.1.15,2013-05-19 01:40:00,
2013-05-18 21:50:00,63.0,48.0,30.02,ENE,66,1.0,2.0,58,0.00,,,0.00,Wunderground v.1.15,2013-05-19 01:50:00,
2013-05-18 21:55:00,63.0,48.4,30.02,ENE,68,1.0,2.0,59,0.00,,,0.00,Wunderground v.1.15,2013-05-19 01:55:00,
2013-05-18 22:00:00,62.8,48.3,30.02,ENE,67,1.0,1.0,59,0.00,,,0.00,Wunderground v.1.15,2013-05-19 02:00:00,
2013-05-18 22:05:00,62.5,48.4,30.02,ENE,69,1.0,2.0,60,0.00,,,0.00,Wunderground v.1.15,2013-05-19 02:05:00,
2013-05-18 22:10:00,62.3,47.8,30.03,ENE,67,1.0,2.0,59,0.00,,,0.00,Wunderground v.1.15,2013-05-19 02:10:00,
2013-05-18 22:15:00,62.3,48.2,30.03,ENE,68,1.0,2.0,60,0.00,,,0.00,Wunderground v.1.15,2013-05-19 02:15:00,
2013-05-18 22:25:00,62.4,47.9,30.02,ENE,69,1.0,2.0,59,0.00,,,0.00,Wunderground v.1.15,2013-05-19 02:25:00,
2013-05-18 22:30:00,62.3,47.8,30.03,ENE,69,0.0,2.0,59,0.00,,,0.00,Wunderground v.1.15,2013-05-19 02:30:00,
2013-05-18 22:35:00,62.1,48.0,30.03,ENE,69,0.0,2.0,60,0.00,,,0.00,Wunderground v.1.15,2013-05-19 02:35:00,
2013-05-18 22:40:00,61.8,47.8,30.02,ENE,68,0.0,2.0,60,0.00,,,0.00,Wunderground v.1.15,2013-05-19 02:40:00,
2013-05-18 22:45:00,61.7,48.1,30.02,ENE,69,0.0,2.0,61,0.00,,,0.00,Wunderground v.1.15,2013-05-19 02:45:00,
2013-05-18 22:50:00,61.6,48.0,30.03,ENE,69,0.0,2.0,61,0.00,,,0.00,Wunderground v.1.15,2013-05-19 02:50:00,
2013-05-18 23:00:00,61.3,48.2,30.03,ENE,69,0.0,2.0,62,0.00,,,0.00,Wunderground v.1.15,2013-05-19 03:00:00,
2013-05-18 23:05:00,61.1,47.5,30.03,ENE,69,0.0,2.0,61,0.00,,,0.00,Wunderground v.1.15,2013-05-19 03:05:00,
2013-05-18 23:10:00,61.1,47.5,30.03,ENE,69,0.0,2.0,61,0.00,,,0.00,Wunderground v.1.15,2013-05-19 03:10:00,
2013-05-18 23:20:00,61.0,47.9,30.03,ENE,68,0.0,2.0,62,0.00,,,0.00,Wunderground v.1.15,2013-05-19 03:20:00,
2013-05-18 23:30:00,60.5,48.3,30.03,ENE,69,0.0,2.0,64,0.00,,,0.00,Wunderground v.1.15,2013-05-19 03:30:00,
2013-05-18 23:35:00,60.1,48.3,30.03,ENE,69,0.0,2.0,65,0.00,,,0.00,Wunderground v.1.15,2013-05-19 03:35:00,
2013-05-18 23:40:00,59.6,48.2,30.02,ENE,68,0.0,2.0,66,0.00,,,0.00,Wunderground v.1.15,2013-05-19 03:40:00,
2013-05-18 23:45:00,59.3,47.9,30.02,ENE,69,0.0,2.0,66,0.00,,,0.00,Wunderground v.1.15,2013-05-19 03:45:00,
2013-05-18 23:50:00,59.2,46.6,30.02,ESE,115,0.0,2.0,63,0.00,,,0.00,Wunderground v.1.15,2013-05-19 03:50:00,
2013-05-18 23:55:00,59.6,47.4,30.02,SE,140,0.0,2.0,64,0.00,,,0.00,Wunderground v.1.15,2013-05-19 03:55:00,